Weather in Djermuk

Armenia     39°50′25″N   45°40′13″E
temp.,
°C
wind,
m/s
gust,
m/s
humid.,
%
clouds,
%
prec.,
mm/h
press.,
hPa
HPBL,
m
29 june, wed
wed2901:00+11ene43780 0.0 101328
04:00+10ene33760 0.0 101321
07:00+12e23790 0.0 101399
10:00+17s33550 0.1 10111427
13:00+20ssw354033 0.0 10102551
16:00+20ssw45361 0.1 10102315
19:00+16ese34660 0.1 1012278
22:00+10ene43830 0.1 101537
30 june, thu
thu3001:00+10ene43691 0.0 101533
04:00+9ene43660 0.0 101532
07:00+11e33720 0.0 101487
10:00+16sse44550 0.0 1013692
13:00+19sse44460 0.0 10111122
16:00+19se43470 0.0 10101098
19:00+16ese34650 0.0 1011363
22:00+10ene43780 0.0 101437
1 july, fri
fri101:00+10ene43560 0.0 101330
04:00+10ene33570 0.0 101227
07:00+12e33650 0.0 101150
10:00+17sse33480 0.0 1009633
13:00+20sse44450 0.0 10081512
16:00+20sse55452 0.0 10061841
19:00+16ese45690 0.0 1008356
22:00+11ene437565 0.0 101141
2 july, sat
sat201:00+12ene335734 0.0 101039
04:00+9ene43670 0.0 101135
07:00+11ene33690 0.0 101069
10:00+16sse32530 0.0 1008857
13:00+17sse445422 0.3 10081352
16:00+17sse455744 1.4 10071167
19:00+11e448162 2.0 1011114
22:00+10ene348393 2.2 101386
3 july, sun
sun301:00+8e338768 0.3 1014102
04:00+8ene338789 0.3 1014104
07:00+9e238884 0.0 1014310
10:00+9ese338694 0.1 1015515
13:00+12se327164 0.1 1014761
16:00+12ese227286 0.3 1014720
19:00+11e227557 0.1 1015509
22:00+7ene338637 0.1 1019156